Snowfall_Accumulation
2.2 3.4 4.1 0.9 1.1 2.7 1.9 2.0 1.0 0.0 0.0 0.0 0.0 0.3 0.0 0.0 0.0 0.0 0.0 0.0 0.0 0.0 0.0 0.0 0.0 0.0 0.0 0.0 0.0 0.0 0.0 0.0 0.0 0.0 0.0 0.0 0.0 0.0 0.0 0.0 0.0 0.0 0.0 0.0
2.6 8.0 0.0 0.0 0.0 2.7 3.9 2.2 1.0 0.0 0.0 0.0 0.0 0.0 0.0 0.0 0.0 0.0 0.0 0.0 0.0 0.0 0.0 0.0 0.0 0.0 0.0 0.0 0.0 0.0 0.0 0.0 0.0 0.0 0.0 0.0 0.0 0.0 0.0 0.0 0.0 0.0 0.0 0.0
2.3 0.3 0.0 0.0 2.3 6.7 3.0 2.2 1.0 0.8 0.5 0.0 0.0 1.2 0.0 0.0 0.0 0.0 0.0 0.0 0.0 0.0 0.0 0.0 0.0 0.0 0.0 0.0 0.0 0.0 0.0 0.0 0.0 0.0 0.0 0.0 0.0 0.0 0.0 0.0 0.0 0.0 0.0 0.0
1.3 0.0 0.0 2.3 5.5 6.0 4.3 1.6 1.9 2.1 9.0 10.0 0.0 5.3 0.0 0.0 0.0 0.0 0.0 0.0 0.0 0.0 0.0 0.0 0.0 0.0 0.0 0.0 0.0 0.0 0.0 0.0 0.0 0.0 0.0 0.0 0.0 0.0 0.0 0.0 0.0 0.0 0.0 0.0
8.5 0.1 0.2 10.5 2.7 5.9 7.0 4.4 1.4 3.3 8.7 7.8 3.5 7.3 2.8 0.0 0.0 0.0 0.0 0.0 0.0 0.0 0.0 0.0 0.0 0.0 0.0 0.0 0.0 0.0 0.0 0.0 0.0 0.0 0.0 0.0 0.0 0.0 0.0 0.0 0.0 0.0 0.0 0.0
0.3 0.0 0.5 1.9 0.3 1.3 0.0 2.3 2.0 6.1 11.4 14.8 2.1 4.1 6.5 2.2 0.1 0.0 0.0 0.0 0.0 0.0 0.0 0.0 0.0 0.0 0.0 0.0 0.0 0.0 0.0 0.0 0.0 0.0 0.0 0.0 0.0 0.0 0.0 0.0 0.0 0.0 0.0 0.0
6.9 6.7 0.8 0.0 6.9 2.1 8.9 11.9 24.2 26.7 19.7 8.0 5.5 6.4 3.7 1.8 0.0 0.0 0.0 0.0 0.0 0.0 0.0 0.0 0.0 0.0 0.0 0.0 0.0 0.0 0.0 0.0 0.0 0.0 0.0 0.0 0.0 0.0 0.0 0.0 0.0 0.0 0.0 0.0
17.7 18.2 5.0 0.7 5.0 12.4 8.6 8.2 14.6 9.0 6.4 3.6 2.7 5.0 5.7 0.0 0.0 0.0 0.0 0.0 0.0 0.0 0.0 0.0 0.0 0.0 0.0 0.0 0.0 0.0 0.0 0.0 0.0 0.0 0.0 0.0 0.0 0.0 0.0 0.0 0.0 0.0 0.0 0.0
6.9 11.8 1.0 0.6 1.3 3.8 7.1 12.8 4.1 4.3 3.4 3.6 2.9 3.1 0.0 0.0 0.0 0.0 0.0 0.0 0.0 0.0 0.0 0.0 0.0 0.0 0.0 0.0 0.0 0.0 0.0 0.0 0.0 0.0 0.0 0.0 0.0 0.0 0.0 0.0 0.0 0.0 0.0 0.0
3.7 11.1 1.6 0.9 0.6 0.6 6.1 1.9 9.5 16.3 8.2 6.3 2.8 3.4 9.6 8.2 9.5 1.5 1.0 1.7 0.0 0.0 0.0 0.0 0.0 0.0 0.0 0.0 0.0 0.0 0.0 0.0 0.0 0.0 0.0 0.0 0.0 0.0 0.0 0.0 0.0 0.0 0.0 0.0
0.5 10.8 6.6 8.0 9.7 7.4 9.7 9.6 7.8 5.3 4.2 3.9 3.0 8.1 7.8 10.8 10.1 6.7 7.8 0.9 0.0 0.0 0.0 0.0 0.0 0.0 0.0 0.0 0.0 0.0 0.0 0.0 0.0 0.0 0.0 0.0 0.0 0.0 0.0 0.0 0.0 0.0 0.0 0.0
0.1 9.2 12.6 6.8 2.6 1.9 2.2 3.9 3.7 12.7 7.1 3.6 5.9 8.1 0.0 0.0 0.0 9.7 5.4 0.0 0.0 0.0 0.0 0.0 0.0 0.0 0.0 0.0 0.0 0.0 0.0 0.0 0.0 0.0 0.0 0.0 0.0 0.0 0.0 0.0 0.0 0.0 0.0 0.0
0.0 7.1 11.4 9.5 5.1 1.4 7.1 4.5 4.9 6.3 8.1 8.8 8.7 9.1 0.0 0.0 0.0 0.0 7.5 0.0 0.0 0.0 0.0 0.0 0.0 0.0 0.0 0.0 0.0 0.0 0.0 0.0 0.0 0.0 0.0 0.0 0.0 0.0 0.0 0.0 0.0 0.0 0.0 0.0
0.4 7.5 11.2 9.9 6.2 4.5 9.3 3.9 5.5 12.3 14.1 5.0 10.1 6.2 3.1 1.1 3.4 6.5 4.1 0.0 0.0 0.0 0.0 0.0 0.0 0.0 0.0 0.0 0.0 0.0 0.0 0.0 0.0 0.0 0.0 0.0 0.0 0.0 0.0 0.0 0.0 0.0 0.0 0.0
0.7 11.8 5.6 3.6 1.8 3.8 4.7 4.4 4.2 9.9 4.6 5.6 3.5 2.3 2.1 1.6 2.8 7.7 0.0 0.0 0.0 0.0 0.0 0.0 0.0 0.0 0.0 0.0 0.0 0.0 0.0 0.0 0.0 0.0 0.0 0.0 0.0 0.0 0.0 0.0 0.0 0.0 0.0 0.0
0.2 7.1 6.9 5.3 0.0 2.4 4.0 0.6 1.6 0.7 0.2 0.7 0.0 0.4 0.1 0.0 0.0 0.0 0.0 0.0 0.0 0.0 0.0 0.0 0.0 0.0 0.0 0.0 0.0 0.0 0.0 0.0 0.0 0.0 0.0 0.0 0.0 0.0 0.0 0.0 0.0 0.0 0.0 0.0
0.1 4.6 7.2 5.9 2.7 0.7 3.8 3.4 0.3 0.0 0.0 0.0 2.6 0.1 0.0 0.0 0.0 0.0 0.0 0.1 0.1 0.2 0.2 0.0 0.0 0.0 0.0 0.0 0.0 0.0 0.0 0.0 0.0 0.0 0.0 0.0 0.0 0.0 0.0 0.0 0.0 0.0 0.0 0.0
0.4 2.2 6.2 5.3 1.6 3.9 0.2 0.0 0.0 0.0 0.0 0.0 0.0 0.1 0.0 0.0 0.0 0.0 0.0 0.1 0.1 0.1 0.0 0.2 0.1 0.0 0.0 0.0 0.0 0.0 0.0 0.0 0.0 0.0 0.0 0.0 0.0 0.0 0.0 0.0 2.1 3.3 1.0 3.2
0.6 3.2 8.8 6.6 2.5 0.5 0.1 0.1 0.2 1.4 0.5 0.0 0.0 0.0 0.0 0.0 0.0 0.0 0.0 0.0 0.0 0.1 0.1 0.0 0.1 0.1 0.0 0.0 0.0 0.0 0.0 0.0 0.0 0.0 0.0 0.0 0.0 0.0 0.0 3.9 4.8 3.3 3.1 6.7
0.6 2.2 5.0 4.0 4.4 1.1 0.9 0.0 0.0 0.0 1.2 0.0 0.0 0.1 0.1 0.0 0.2 0.1 0.0 0.0 0.1 0.0 0.0 0.0 0.0 0.1 0.0 0.0 0.0 0.0 0.0 0.0 2.0 0.0 1.3 0.2 0.0 0.0 2.8 3.2 3.0 7.1 6.0 5.4
0.9 3.2 5.9 3.3 4.5 1.2 0.1 0.1 0.0 1.2 0.5 0.0 0.0 0.1 0.2 0.3 0.3 0.0 0.0 0.0 0.0 0.0 0.0 0.0 0.0 0.0 0.0 0.0 0.0 0.0 0.0 3.7 6.3 0.0 2.4 2.3 2.4 2.4 4.2 6.5 5.6 4.8 3.4 2.4
3.1 4.5 2.6 1.9 3.0 1.7 0.2 0.6 2.1 1.7 1.0 0.0 0.4 0.2 0.5 0.1 0.0 0.0 0.0 0.1 0.0 0.0 0.0 0.0 3.0 3.1 0.0 0.1 0.1 3.8 4.8 2.6 4.4 3.4 5.7 5.7 4.9 4.1 3.4 2.3 1.3 0.7 0.1 0.0
4.7 4.8 5.1 3.8 1.7 1.2 1.6 5.0 4.7 4.8 5.0 2.2 2.4 1.0 1.1 0.7 0.3 0.0 0.4 0.5 0.0 0.4 0.0 0.0 0.0 0.0 0.0 1.5 0.0 2.4 1.6 1.1 1.9 1.5 0.9 1.2 0.3 0.0 0.0 0.0 0.0 0.0 0.0 0.0
1.3 2.1 4.8 5.6 3.8 3.9 5.0 5.4 4.9 5.4 5.9 5.0 4.1 2.4 1.6 1.4 0.6 0.3 1.0 0.6 0.3 1.0 0.4 0.2 0.1 0.1 0.0 0.2 0.0 0.0 0.0 0.1 0.0 0.0 0.0 0.0 0.0 0.0 0.0 0.0 0.0 0.0 0.0 0.0
3.7 2.5 3.3 3.4 6.2 6.0 3.2 5.7 6.8 6.3 4.8 6.4 5.8 5.6 3.6 2.2 4.0 3.1 2.8 3.3 3.3 2.8 2.2 1.5 1.1 1.0 0.6 0.1 0.0 0.1 0.0 0.0 0.0 0.0 0.0 0.0 0.0 0.0 0.0 0.0 0.0 0.0 0.0 0.0
10.1 11.9 11.6 8.4 9.3 12.8 12.4 10.6 8.1 7.2 10.2 12.9 8.8 6.6 6.4 6.5 7.7 5.4 4.8 5.3 6.1 4.7 3.7 2.6 2.5 0.8 1.5 1.0 0.8 0.6 0.4 0.0 0.0 0.0 0.0 0.0 0.0 0.0 0.0 0.0 0.0 0.0 0.0 0.0